Project,Study,Ord_Occ,Event_Num,Cast_ID,Date_Time_UTC,Date_Time_PST,Lat_Dec,Lon_Dec,Sta_ID,Line,Sta,Depth,Pressure,PrQ,Temp1,Temp1Q,Temp2,Temp2Q,TempAve,Salt1,Salt1Q,Salt1_Corr,Salt2,Salt2Q,Salt2_Corr,SaltAve_Corr,Ox1,Ox1Q,Ox1_CruiseCorr,Ox1_StaCorr,Ox2,Ox2Q,Ox2_CruiseCorr,Ox2_StaCorr,OxAve_StaCorr,Ox1uM,Ox1uM_CruiseCorr,Ox1uM_StaCorr,Ox2uM,Ox2uM_CruiseCorr,Ox2uM_StaCorr,OxAveuM_StaCorr,FluorV,FluorQ,EstChl_CruiseCorr,EstChl_StaCorr,ISUSV,ISUSQ,EstNO3_CruiseCorr,EstNO3_StaCorr,SigThetaTS1,SigThetaTS1Q,SigThetaTS2,SigThetaTS2Q,BAT,XMiss,TransQ,pH,pHQ,SPAR,SPARQ,PAR,PARQ,PoT1,PoT2,DynHt,SVA,OxSat1,OxSat2,BTL_Depth,BTL_Temp,SaltB,OxB,OxBuM,Chl-a,Phaeo,NO3,NO2,NH4,PO4,SIL
CalCOFI,2105SH,029,,2105_029u,10-May-2021 06:08:06,09-May-2021 22:08:06,33.31790,-119.66498,086.7 050.0,086.7,050.0,50.000,50.363,,9.8492,,9.8799,,9.8646,33.9294,,33.9306,33.9108,,33.9127,33.9217,2.8632,,3.0604,,2.9489,,3.1139,,,124.608,132.7640,133.5326,128.346,139.7055,135.1930,134.3628,0.0448,,0.1119,0.3837,1.4900,,0.0000,,26.1423,,26.1226,,,,,,,,,,,9.8436,9.8743,0.1126,187.257,44.881,46.253,,,,,,,,,,,,
CalCOFI,2105SH,029,,2105_029u,10-May-2021 06:08:08,09-May-2021 22:08:08,33.31790,-119.66498,086.7 050.0,086.7,050.0,49.000,49.355,,9.9214,,9.9206,,9.9210,33.9053,,33.9065,33.9065,,33.9084,33.9075,2.9029,,3.1020,,2.9705,,3.1362,,,126.346,134.5809,135.3412,129.285,141.5825,136.1643,135.7528,0.0481,,0.1364,0.4004,1.4870,,0.0000,,26.1113,,26.1124,,,,,,,,,,,9.9158,9.9150,0.1126,190.187,45.571,46.631,,,,,,,,,,,,
CalCOFI,2105SH,029,,2105_029u,10-May-2021 06:08:13,09-May-2021 22:08:13,33.31786,-119.66501,086.7 050.0,086.7,050.0,48.000,48.348,,9.9613,,9.9623,,9.9618,33.9017,,33.9029,33.9014,,33.9033,33.9031,2.9046,,3.1037,,2.9558,,3.1210,,,126.421,134.6593,135.4193,128.649,141.6635,135.5064,135.4629,0.0476,,0.1327,0.3979,1.4826,,0.0000,,26.1018,,26.1014,,,,,,,,,,,9.9559,9.9569,0.1135,191.071,45.636,46.441,48,9.961,,3.120,135.79,0.237,0.530,22.98,0.140,0.00,1.81,24.99
CalCOFI,2105SH,029,,2105_029u,10-May-2021 06:08:41,09-May-2021 22:08:41,33.31772,-119.66510,086.7 050.0,086.7,050.0,47.000,47.340,,9.9754,,9.9754,,9.9754,33.8992,,33.9004,33.8994,,33.9013,33.9009,2.9157,,3.1153,,2.9624,,3.1279,,,126.903,135.1632,135.9209,128.938,142.1841,135.8054,135.8632,0.0480,,0.1357,0.3999,1.4832,,0.0000,,26.0975,,26.0976,,,,,,,,,,,9.9700,9.9701,0.1222,191.463,45.823,46.558,,,,,,,,,,,,
CalCOFI,2105SH,029,,2105_029u,10-May-2021 06:08:59,09-May-2021 22:08:59,33.31763,-119.66514,086.7 050.0,086.7,050.0,46.000,46.333,,9.9793,,9.9804,,9.9799,33.8985,,33.8997,33.8985,,33.9004,33.9001,2.9363,,3.1369,,2.9685,,3.1342,,,127.801,136.1020,136.8554,129.202,143.1539,136.0784,136.4669,0.0511,,0.1586,0.4156,1.4854,,0.0000,,26.0962,,26.0960,,,,,,,,,,,9.9741,9.9751,0.1269,191.558,46.151,46.658,,,,,,,,,,,,
CalCOFI,2105SH,029,,2105_029u,10-May-2021 06:09:00,09-May-2021 22:09:00,33.31762,-119.66514,086.7 050.0,086.7,050.0,45.000,45.326,,9.9822,,9.9821,,9.9822,33.8981,,33.8993,33.8983,,33.9002,33.8998,2.9433,,3.1442,,2.9705,,3.1362,,,128.107,136.4219,137.1739,129.287,143.4844,136.1663,136.6701,0.0490,,0.1431,0.4050,1.4872,,0.0000,,26.0954,,26.0956,,,,,,,,,,,9.9771,9.9769,0.1268,191.620,46.265,46.691,,,,,,,,,,,,
CalCOFI,2105SH,029,,2105_029u,10-May-2021 06:09:01,09-May-2021 22:09:01,33.31762,-119.66516,086.7 050.0,086.7,050.0,44.000,44.318,,9.9828,,9.9826,,9.9827,33.8979,,33.8991,33.8980,,33.8999,33.8995,2.9429,,3.1438,,2.9832,,3.1494,,,128.089,136.4030,137.1551,129.843,143.4650,136.7414,136.9483,0.0480,,0.1357,0.3999,1.4895,,0.0000,,26.0951,,26.0952,,,,,,,,,,,9.9778,9.9776,0.1268,191.622,46.258,46.892,,,,,,,,,,,,
CalCOFI,2105SH,029,,2105_029u,10-May-2021 06:09:02,09-May-2021 22:09:02,33.31762,-119.66516,086.7 050.0,086.7,050.0,43.000,43.311,,9.9837,,9.9838,,9.9838,33.8974,,33.8986,33.8975,,33.8994,33.8990,2.9565,,3.1580,,3.0085,,3.1756,,,128.677,137.0177,137.7670,130.943,144.1000,137.8792,137.8231,0.0499,,0.1498,0.4095,1.4919,,0.0000,,26.0945,,26.0946,,,,,,,,,,,9.9788,9.9788,0.1268,191.654,46.472,47.290,,,,,,,,,,,,
CalCOFI,2105SH,029,,2105_029u,10-May-2021 06:09:03,09-May-2021 22:09:03,33.31762,-119.66518,086.7 050.0,086.7,050.0,42.000,42.304,,9.9865,,9.9867,,9.9866,33.8963,,33.8975,33.8964,,33.8983,33.8979,2.9799,,3.1825,,3.0499,,3.2185,,,129.698,138.0851,138.8296,132.747,145.2027,139.7451,139.2874,0.0506,,0.1549,0.4131,1.4946,,0.0000,,26.0932,,26.0933,,,,,,,,,,,9.9817,9.9819,0.1268,191.755,46.843,47.944,,,,,,,,,,,,
CalCOFI,2105SH,029,,2105_029u,10-May-2021 06:09:04,09-May-2021 22:09:04,33.31762,-119.66518,086.7 050.0,086.7,050.0,41.000,41.296,,9.9919,,9.9908,,9.9914,33.8948,,33.8960,33.8954,,33.8973,33.8967,3.0211,,3.2256,,3.1116,,3.2824,,,131.494,139.9626,140.6986,135.432,147.1424,142.5222,141.6104,0.0499,,0.1498,0.4095,1.4981,,0.0000,,26.0911,,26.0918,,,,,,,,,,,9.9873,9.9862,0.1268,191.938,47.496,48.918,,,,,,,,,,,,
CalCOFI,2105SH,029,,2105_029u,10-May-2021 06:09:05,09-May-2021 22:09:05,33.31761,-119.66518,086.7 050.0,086.7,050.0,40.000,40.289,,10.0347,,10.0309,,10.0328,33.8872,,33.8884,33.8910,,33.8929,33.8907,3.0910,,3.2987,,3.1884,,3.3619,,,134.536,143.1427,143.8643,138.773,150.4278,145.9778,144.9211,0.0512,,0.1594,0.4161,1.5035,,0.0000,,26.0779,,26.0815,,,,,,,,,,,10.0301,10.0263,0.1268,193.171,48.638,50.167,,,,,,,,,,,,
CalCOFI,2105SH,029,,2105_029u,10-May-2021 06:09:06,09-May-2021 22:09:06,33.31760,-119.66518,086.7 050.0,086.7,050.0,39.000,39.282,,10.1947,,10.1933,,10.1940,33.8737,,33.8749,33.8837,,33.8856,33.8803,3.1785,,3.3902,,3.2435,,3.4190,,,138.349,147.1288,147.8324,141.176,154.5458,148.4633,148.1479,0.0549,,0.1868,0.4349,1.5131,,0.0000,,26.0402,,26.0482,,,,,,,,,,,10.1902,10.1888,0.1268,196.743,50.184,51.212,,,,,,,,,,,,
CalCOFI,2105SH,029,,2105_029u,10-May-2021 06:09:08,09-May-2021 22:09:08,33.31758,-119.66518,086.7 050.0,086.7,050.0,38.000,38.274,,10.3098,,10.3197,,10.3148,33.8737,,33.8749,33.8786,,33.8805,33.8777,3.2121,,3.4253,,3.2813,,3.4582,,,139.813,148.6593,149.3559,142.828,156.1269,150.1720,149.7640,0.0669,,0.2751,0.4956,1.5252,,0.0000,,26.0204,,26.0225,,,,,,,,,,,10.3053,10.3153,0.1268,198.606,50.840,51.949,,,,,,,,,,,,
CalCOFI,2105SH,029,,2105_029u,10-May-2021 06:09:09,09-May-2021 22:09:09,33.31758,-119.66518,086.7 050.0,086.7,050.0,37.000,37.267,,10.3683,,10.3814,,10.3749,33.8725,,33.8737,33.8776,,33.8795,33.8766,3.2480,,3.4629,,3.3024,,3.4800,,,141.377,150.2943,150.9835,143.746,157.8161,151.1215,151.0525,0.0742,,0.3285,0.5326,1.5357,,0.0000,,26.0094,,26.0111,,,,,,,,,,,10.3639,10.3771,0.1268,199.634,51.473,52.352,,,,,,,,,,,,
CalCOFI,2105SH,029,,2105_029u,10-May-2021 06:09:10,09-May-2021 22:09:10,33.31758,-119.66518,086.7 050.0,086.7,050.0,36.000,36.260,,10.4107,,10.4250,,10.4179,33.8722,,33.8734,33.8766,,33.8785,33.8760,3.2799,,3.4962,,3.3301,,3.5087,,,142.769,151.7495,152.4321,144.952,159.3194,152.3689,152.4005,0.0790,,0.3635,0.5569,1.5454,,0.0000,,26.0018,,26.0028,,,,,,,,,,,10.4065,10.4208,0.1268,200.339,52.027,52.840,,,,,,,,,,,,
CalCOFI,2105SH,029,,2105_029u,10-May-2021 06:09:11,09-May-2021 22:09:11,33.31758,-119.66518,086.7 050.0,086.7,050.0,35.000,35.252,,10.4552,,10.4639,,10.4596,33.8704,,33.8716,33.8757,,33.8776,33.8746,3.3125,,3.5303,,3.3655,,3.5454,,,144.190,153.2350,153.9109,146.494,160.8541,153.9638,153.9374,0.0823,,0.3875,0.5736,1.5569,,0.0000,,25.9927,,25.9953,,,,,,,,,,,10.4510,10.4598,0.1268,201.184,52.594,53.447,,,,,,,,,,,,
CalCOFI,2105SH,029,,2105_029u,10-May-2021 06:09:13,09-May-2021 22:09:13,33.31758,-119.66518,086.7 050.0,086.7,050.0,34.000,34.245,,10.5305,,10.5184,,10.5245,33.8666,,33.8678,33.8732,,33.8751,33.8715,3.3561,,3.5759,,3.4104,,3.5919,,,146.088,155.2192,155.8861,148.449,162.9040,155.9859,155.9360,0.1002,,0.5166,0.6643,1.5731,,0.0000,,25.9766,,25.9839,,,,,,,,,,,10.5265,10.5144,0.1268,202.696,53.371,54.222,,,,,,,,,,,,
CalCOFI,2105SH,029,,2105_029u,10-May-2021 06:09:14,09-May-2021 22:09:14,33.31757,-119.66519,086.7 050.0,086.7,050.0,33.000,33.238,,10.5997,,10.5951,,10.5974,33.8654,,33.8666,33.8695,,33.8714,33.8690,3.3929,,3.6144,,3.4506,,3.6335,,,147.690,156.8939,157.5532,150.202,164.6341,157.7990,157.6761,0.0997,,0.5130,0.6618,1.5901,,0.0000,,25.9635,,25.9676,,,,,,,,,,,10.5957,10.5911,0.1268,203.915,54.036,54.951,,,,,,,,,,,,
CalCOFI,2105SH,029,,2105_029u,10-May-2021 06:09:15,09-May-2021 22:09:15,33.31756,-119.66520,086.7 050.0,086.7,050.0,32.000,32.231,,10.6202,,10.6270,,10.6236,33.8656,,33.8668,33.8691,,33.8710,33.8689,3.4347,,3.6581,,3.4936,,3.6781,,,149.514,158.8007,159.4514,152.077,166.6040,159.7383,159.5949,0.1079,,0.5717,0.7033,1.6031,,0.0000,,25.9601,,25.9616,,,,,,,,,,,10.6164,10.6232,0.1268,204.217,54.727,55.675,,,,,,,,,,,,
CalCOFI,2105SH,029,,2105_029u,10-May-2021 06:09:16,09-May-2021 22:09:16,33.31755,-119.66520,086.7 050.0,086.7,050.0,31.000,31.223,,10.6610,,10.6686,,10.6648,33.8627,,33.8639,33.8681,,33.8700,33.8670,3.4687,,3.6937,,3.5307,,3.7165,,,150.993,160.3469,160.9905,153.691,168.2014,161.4077,161.1991,0.1024,,0.5324,0.6755,1.6149,,0.0000,,25.9507,,25.9535,,,,,,,,,,,10.6573,10.6649,0.1268,205.095,55.315,56.315,,,,,,,,,,,,
CalCOFI,2105SH,029,,2105_029u,10-May-2021 06:09:17,09-May-2021 22:09:17,33.31754,-119.66520,086.7 050.0,086.7,050.0,30.000,30.216,,10.7141,,10.7242,,10.7192,33.8603,,33.8615,33.8663,,33.8682,33.8649,3.5111,,3.7380,,3.5819,,3.7695,,,152.840,162.2777,162.9127,155.924,170.1961,163.7173,163.3150,0.1077,,0.5703,0.7023,1.6263,,0.0000,,25.9395,,25.9423,,,,,,,,,,,10.7105,10.7206,0.1268,206.139,56.054,57.200,,,,,,,,,,,,
CalCOFI,2105SH,029,,2105_029u,10-May-2021 06:09:18,09-May-2021 22:09:18,33.31754,-119.66520,086.7 050.0,086.7,050.0,29.000,29.209,,10.7605,,10.7652,,10.7629,33.8591,,33.8603,33.8654,,33.8673,33.8638,3.5691,,3.7987,,3.6200,,3.8090,,,155.367,164.9195,165.5424,157.581,172.9253,165.4312,165.4868,0.1211,,0.6655,0.7702,1.6380,,0.0000,,25.9303,,25.9344,,,,,,,,,,,10.7570,10.7617,0.1268,206.988,57.037,57.858,29,10.761,,,165.07,0.944,0.774,20.33,0.179,0.08,1.62,21.63
CalCOFI,2105SH,029,,2105_029u,10-May-2021 06:09:19,09-May-2021 22:09:19,33.31754,-119.66520,086.7 050.0,086.7,050.0,28.000,28.202,,10.8854,,10.8777,,10.8816,33.8531,,33.8543,33.8633,,33.8652,33.8598,3.5802,,3.8103,,3.6192,,3.8082,,,155.856,165.4307,166.0513,157.551,173.4534,165.4002,165.7258,0.1234,,0.6818,0.7818,1.6501,,0.0000,,25.9035,,25.9127,,,,,,,,,,,10.8820,10.8744,0.1268,209.518,57.366,57.984,,,,,,,,,,,,
CalCOFI,2105SH,029,,2105_029u,10-May-2021 06:09:47,09-May-2021 22:09:47,33.31741,-119.66524,086.7 050.0,086.7,050.0,27.000,27.194,,10.9831,,10.9848,,10.9840,33.8556,,33.8568,33.8586,,33.8605,33.8587,3.6586,,3.8923,,3.7121,,3.9044,,,159.268,168.9976,169.6021,161.600,177.1384,169.5881,169.5951,0.1557,,0.9074,0.9454,1.7272,,0.0000,,25.8880,,25.8900,,,,,,,,,,,10.9798,10.9815,0.1321,210.971,58.744,59.608,,,,,,,,,,,,
CalCOFI,2105SH,029,,2105_029u,10-May-2021 06:09:51,09-May-2021 22:09:51,33.31738,-119.66524,086.7 050.0,086.7,050.0,26.000,26.187,,11.0104,,11.0252,,11.0178,33.8558,,33.8570,33.8592,,33.8611,33.8591,3.7749,,4.0139,,3.7843,,3.9792,,,164.332,174.2915,174.8720,164.743,182.6075,172.8390,173.8555,0.1482,,0.8554,0.9074,1.7476,,0.0000,,25.8832,,25.8832,,,,,,,,,,,11.0072,11.0220,0.1327,211.405,60.647,60.819,,,,,,,,,,,,
CalCOFI,2105SH,029,,2105_029u,10-May-2021 06:09:52,09-May-2021 22:09:52,33.31738,-119.66524,086.7 050.0,086.7,050.0,25.000,25.180,,11.1515,,11.1196,,11.1356,33.8442,,33.8454,33.8564,,33.8583,33.8519,3.8303,,4.0718,,3.8670,,4.0648,,,166.751,176.8203,177.3894,168.344,185.2200,176.5635,176.9765,0.1538,,0.8942,0.9358,1.7631,,0.0000,,25.8488,,25.8640,,,,,,,,,,,11.1485,11.1166,0.1327,214.658,61.719,62.272,,,,,,,,,,,,
CalCOFI,2105SH,029,,2105_029u,10-May-2021 06:09:53,09-May-2021 22:09:53,33.31738,-119.66524,086.7 050.0,086.7,050.0,24.000,24.172,,11.2711,,11.1929,,11.2320,33.8476,,33.8488,33.8519,,33.8538,33.8513,3.9625,,4.2101,,4.0846,,4.2902,,,172.509,182.8397,183.3815,177.822,191.4387,186.3667,184.8741,0.1569,,0.9156,0.9515,1.7790,,0.0000,,25.8297,,25.8473,,,,,,,,,,,11.2682,11.1899,0.1327,216.450,64.014,65.878,,,,,,,,,,,,
CalCOFI,2105SH,029,,2105_029u,10-May-2021 06:09:54,09-May-2021 22:09:54,33.31738,-119.66524,086.7 050.0,086.7,050.0,23.000,23.165,,11.2992,,11.2178,,11.2585,33.8445,,33.8457,33.8516,,33.8535,33.8496,4.2031,,4.4617,,4.4050,,4.6221,,,182.984,193.7903,194.2825,191.773,202.7517,200.7964,197.5395,0.1881,,1.1286,1.1096,1.7970,,0.0000,,25.8222,,25.8425,,,,,,,,,,,11.2963,11.2150,0.1327,217.140,67.940,71.083,,,,,,,,,,,,
CalCOFI,2105SH,029,,2105_029u,10-May-2021 06:09:55,09-May-2021 22:09:55,33.31738,-119.66524,086.7 050.0,086.7,050.0,22.000,22.158,,11.5516,,11.3585,,11.4551,33.8476,,33.8488,33.8705,,33.8724,33.8606,4.3763,,4.6428,,4.6462,,4.8719,,,190.533,201.6820,202.1385,202.273,210.9047,211.6568,206.8977,0.1947,,1.1731,1.1430,1.8216,,0.0000,,25.7781,,25.8315,,,,,,,,,,,11.5488,11.3558,0.1327,221.316,71.121,75.210,,,,,,,,,,,,
CalCOFI,2105SH,029,,2105_029u,10-May-2021 06:09:57,09-May-2021 22:09:57,33.31736,-119.66524,086.7 050.0,086.7,050.0,21.000,21.151,,12.0941,,12.2897,,12.1919,33.8380,,33.8392,33.8536,,33.8555,33.8474,4.5911,,4.8675,,4.7045,,4.9323,,,199.909,211.4837,211.8958,204.848,221.0308,214.3201,213.1080,0.3162,,1.9542,1.7584,1.8709,,0.0000,,25.6692,,25.6436,,,,,,,,,,,12.0914,12.2870,0.1327,231.666,75.464,77.651,,,,,,,,,,,,
CalCOFI,2105SH,029,,2105_029u,10-May-2021 06:09:59,09-May-2021 22:09:59,33.31736,-119.66524,086.7 050.0,086.7,050.0,20.000,20.144,,12.6685,,12.6705,,12.6695,33.8065,,33.8077,33.8325,,33.8344,33.8211,4.7927,,5.0783,,4.8209,,5.0529,,,208.714,220.6884,221.0588,209.936,230.5402,219.5827,220.3208,0.3949,,2.4224,2.1571,1.9363,,0.0000,,25.5342,,25.5540,,,,,,,,,,,12.6658,12.6678,0.1327,244.488,79.709,80.194,,,,,,,,,,,,
CalCOFI,2105SH,029,,2105_029u,10-May-2021 06:10:00,09-May-2021 22:10:00,33.31736,-119.66524,086.7 050.0,086.7,050.0,19.000,19.136,,12.8841,,12.8002,,12.8422,33.8020,,33.8032,33.8238,,33.8257,33.8145,4.8864,,5.1763,,4.9603,,5.1973,,,212.801,224.9610,225.3120,216.014,234.9542,225.8692,225.5906,0.4355,,2.6523,2.3627,1.9840,,0.0000,,25.4883,,25.5217,,,,,,,,,,,12.8815,12.7976,0.1327,248.838,81.628,82.731,,,,,,,,,,,,
CalCOFI,2105SH,029,,2105_029u,10-May-2021 06:10:01,09-May-2021 22:10:01,33.31735,-119.66524,086.7 050.0,086.7,050.0,18.000,18.129,,13.0216,,12.9258,,12.9737,33.8052,,33.8064,33.8203,,33.8222,33.8143,4.9588,,5.2520,,5.0522,,5.2925,,,215.960,228.2634,228.5995,220.021,238.3659,230.0137,229.3066,0.4433,,2.6956,2.4022,2.0301,,0.0000,,25.4635,,25.4942,,,,,,,,,,,13.0191,12.9233,0.1327,251.172,83.075,84.480,,,,,,,,,,,,
CalCOFI,2105SH,029,,2105_029u,10-May-2021 06:10:02,09-May-2021 22:10:02,33.31734,-119.66524,086.7 050.0,086.7,050.0,17.000,17.122,,13.1930,,13.1371,,13.1651,33.7960,,33.7972,33.8175,,33.8194,33.8083,5.0324,,5.3290,,5.1360,,5.3793,,,219.172,231.6212,231.9421,223.680,241.8349,233.7983,232.8702,0.4586,,2.7796,2.4797,2.0771,,0.0000,,25.4221,,25.4499,,,,,,,,,,,13.1907,13.1347,0.1327,255.082,84.601,86.256,,,,,,,,,,,,
CalCOFI,2105SH,029,,2105_029u,10-May-2021 06:10:03,09-May-2021 22:10:03,33.31734,-119.66524,086.7 050.0,086.7,050.0,16.000,16.115,,13.2738,,13.3142,,13.2940,33.7972,,33.7984,33.8047,,33.8066,33.8025,5.1389,,5.4404,,5.3461,,5.5969,,,223.815,236.4750,236.7739,232.843,246.8493,243.2757,240.0248,0.4804,,2.8974,2.5902,2.1231,,0.0000,,25.4068,,25.4044,,,,,,,,,,,13.2716,13.3120,0.1327,256.518,86.535,90.105,,,,,,,,,,,,
CalCOFI,2105SH,029,,2105_029u,10-May-2021 06:10:04,09-May-2021 22:10:04,33.31734,-119.66524,086.7 050.0,086.7,050.0,15.000,15.107,,13.3499,,13.3317,,13.3408,33.7940,,33.7952,33.8054,,33.8073,33.8013,5.3182,,5.6279,,5.6162,,5.8767,,,231.629,244.6438,244.9057,244.607,255.2885,255.4434,250.1746,0.5073,,3.0396,2.7264,2.1679,,0.0000,,25.3889,,25.4015,,,,,,,,,,,13.3478,13.3296,0.1327,258.188,89.694,94.691,,,,,,,,,,,,
CalCOFI,2105SH,029,,2105_029u,10-May-2021 06:10:05,09-May-2021 22:10:05,33.31734,-119.66524,086.7 050.0,086.7,050.0,14.000,14.100,,13.4783,,13.4482,,13.4633,33.7871,,33.7883,33.8039,,33.8058,33.7971,5.5750,,5.8964,,5.8063,,6.0736,,,242.821,256.3439,256.5528,252.890,267.3759,264.0106,260.2817,0.5143,,3.0760,2.7619,2.2147,,0.0000,,25.3576,,25.3767,,,,,,,,,,,13.4763,13.4463,0.1327,261.147,94.266,98.128,,,,,,,,,,,,
CalCOFI,2105SH,029,,2105_029u,10-May-2021 06:10:06,09-May-2021 22:10:06,33.31733,-119.66526,086.7 050.0,086.7,050.0,13.000,13.093,,13.7653,,13.9776,,13.8715,33.7807,,33.7819,33.7925,,33.7944,33.7882,5.7013,,6.0285,,5.8720,,6.1416,,,248.340,262.1134,262.2963,255.781,273.3364,267.0008,264.6486,0.6138,,3.5685,3.2659,2.2684,,0.0000,,25.2936,,25.2588,,,,,,,,,,,13.7635,13.9757,0.1327,267.210,96.966,100.307,,,,,,,,,,,,
CalCOFI,2105SH,029,,2105_029u,10-May-2021 06:10:07,09-May-2021 22:10:07,33.31732,-119.66526,086.7 050.0,086.7,050.0,12.000,12.086,,14.2726,,14.2707,,14.2717,33.7668,,33.7680,33.7926,,33.7945,33.7813,5.7727,,6.1032,,5.8992,,6.1698,,,251.477,265.3929,265.5608,256.982,276.7244,268.2430,266.9019,0.6477,,3.7254,3.4376,2.3317,,0.0000,,25.1774,,25.1977,,,,,,,,,,,14.2708,14.2689,0.1327,278.248,99.185,101.371,,,,,,,,,,,,
CalCOFI,2105SH,029,,2105_029u,10-May-2021 06:10:08,09-May-2021 22:10:08,33.31732,-119.66526,086.7 050.0,086.7,050.0,11.000,11.079,,14.3798,,14.5528,,14.4663,33.7581,,33.7593,33.7759,,33.7778,33.7686,5.8948,,6.2309,,5.9283,,6.1999,,,256.804,270.9617,271.1045,258.268,282.4775,269.5732,270.3389,0.7040,,3.9739,3.7228,2.3957,,0.0000,,25.1479,,25.1250,,,,,,,,,,,14.3782,14.5511,0.1327,281.022,101.498,102.440,,,,,,,,,,,,
CalCOFI,2105SH,029,,2105_029u,10-May-2021 06:10:23,09-May-2021 22:10:23,33.31725,-119.66528,086.7 050.0,086.7,050.0,10.000,10.072,,14.6990,,14.6863,,14.6927,33.7584,,33.7596,33.7610,,33.7629,33.7613,5.9257,,6.2632,,5.9909,,6.2648,,,258.165,272.3845,272.5208,261.006,283.9474,272.4051,272.4630,0.7216,,4.0484,3.8119,2.6726,,0.0000,,25.0802,,25.0849,,,,,,,,,,,14.6975,14.6848,0.1352,287.438,102.684,103.790,10,14.699,,,272.34,3.900,0.929,2.57,0.061,0.06,0.39,2.12
CalCOFI,2105SH,029,,2105_029u,10-May-2021 06:10:35,09-May-2021 22:10:35,33.31720,-119.66530,086.7 050.0,086.7,050.0,9.000,9.064,,14.6843,,14.6861,,14.6852,33.7575,,33.7587,33.7580,,33.7599,33.7593,5.9632,,6.3024,,6.0140,,6.2887,,,259.800,274.0937,274.2223,262.015,285.7132,273.4487,273.8355,0.7239,,4.0581,3.8236,2.7105,,0.0000,,25.0826,,25.0826,,,,,,,,,,,14.6829,14.6847,0.1371,287.182,103.304,104.189,,,,,,,,,,,,
CalCOFI,2105SH,029,,2105_029u,10-May-2021 06:10:35,09-May-2021 22:10:35,33.31720,-119.66530,086.7 050.0,086.7,050.0,8.000,8.057,,14.6844,,14.6850,,14.6847,33.7583,,33.7595,33.7584,,33.7603,33.7599,5.9278,,6.2654,,6.0158,,6.2906,,,258.256,272.4796,272.6155,262.090,284.0457,273.5263,273.0709,0.7005,,3.9589,3.7050,2.7091,,0.0000,,25.0832,,25.0831,,,,,,,,,,,14.6833,14.6838,0.1370,287.098,102.691,104.217,,,,,,,,,,,,
CalCOFI,2105SH,029,,2105_029u,10-May-2021 06:10:36,09-May-2021 22:10:36,33.31720,-119.66530,086.7 050.0,086.7,050.0,7.000,7.050,,14.6836,,14.6867,,14.6852,33.7586,,33.7598,33.7581,,33.7600,33.7599,5.9364,,6.2744,,6.0161,,6.2909,,,258.630,272.8706,273.0047,262.104,284.4496,273.5408,273.2728,0.7523,,4.1749,3.9674,2.7096,,0.0000,,25.0836,,25.0825,,,,,,,,,,,14.6825,14.6857,0.1370,287.033,102.838,104.226,,,,,,,,,,,,
CalCOFI,2105SH,029,,2105_029u,10-May-2021 06:10:37,09-May-2021 22:10:37,33.31718,-119.66530,086.7 050.0,086.7,050.0,6.000,6.043,,14.6846,,14.6855,,14.6851,33.7584,,33.7596,33.7587,,33.7606,33.7601,5.9620,,6.3012,,6.0166,,6.2914,,,259.746,274.0373,274.1661,262.127,285.6549,273.5645,273.8653,0.7538,,4.1810,3.9750,2.7101,,0.0000,,25.0832,,25.0832,,,,,,,,,,,14.6837,14.6846,0.1370,287.038,103.284,104.233,,,,,,,,,,,,
CalCOFI,2105SH,029,,2105_029u,10-May-2021 06:10:38,09-May-2021 22:10:38,33.31718,-119.66530,086.7 050.0,086.7,050.0,5.000,5.036,,14.6839,,14.6878,,14.6859,33.7587,,33.7599,33.7588,,33.7607,33.7603,5.9572,,6.2961,,6.0108,,6.2854,,,259.536,273.8177,273.9475,261.875,285.4281,273.3039,273.6257,0.7632,,4.2187,4.0226,2.7105,,0.0000,,25.0835,,25.0827,,,,,,,,,,,14.6832,14.6870,0.1370,286.980,103.199,104.137,,,,,,,,,,,,
CalCOFI,2105SH,029,,2105_029u,10-May-2021 06:10:39,09-May-2021 22:10:39,33.31718,-119.66530,086.7 050.0,086.7,050.0,4.000,4.029,,14.6929,,14.6939,,14.6934,33.7584,,33.7596,33.7588,,33.7607,33.7602,5.9543,,6.2931,,6.0144,,6.2891,,,259.413,273.6892,273.8195,262.032,285.2953,273.4663,273.6429,0.7646,,4.2243,4.0297,2.7109,,0.0000,,25.0813,,25.0814,,,,,,,,,,,14.6923,14.6933,0.1370,287.156,103.169,104.212,,,,,,,,,,,,
CalCOFI,2105SH,029,,2105_029u,10-May-2021 06:10:54,09-May-2021 22:10:54,33.31709,-119.66537,086.7 050.0,086.7,050.0,3.000,3.021,,14.7108,,14.7116,,14.7112,33.7602,,33.7614,33.7598,,33.7617,33.7616,5.9481,,6.2866,,6.0191,,6.2940,,,259.142,273.4058,273.5375,262.236,285.0026,273.6773,273.6074,0.7617,,4.2127,4.0150,2.7156,,0.0000,,25.0788,,25.0784,,,,,,,,,,,14.7103,14.7111,0.1390,287.365,103.100,104.333,3,14.711,33.7644,6.285,273.82,3.914,0.750,1.68,0.057,0.00,0.31,1.21
